Change the Weather History Date:

Saturday, November 17, 2012

  Actual Average Record
Temperature  
Mean Temperature 44 °F -  
Max Temperature 46 °F 51 °F 73 °F (1932)
Min Temperature 39 °F 33 °F 6 °F (1961)
Degree Days  
Heating Degree Days 22    
Moisture  
Dew Point 39 °F    
Average Humidity 85    
Maximum Humidity 93    
Minimum Humidity 79    
Precipitation  
Precipitation 0.05 in - - ()
Sea Level Pressure  
Sea Level Pressure 29.72 in    
Wind  
Wind Speed 2 mph (SSW)    
Max Wind Speed 12 mph    
Max Gust Speed -    
Visibility 7 miles    
Events Rain    
Averages and records for this station are not official NWS values.
T = Trace of Precipitation, MM = Missing Value Source: NWS Daily Summary

Daily Weather History Graph

Daily Weather History Graph

Search for Another Location

Airport or City:

Trip Planner

Search our weather history database for the weather conditions in past years. The results will help you decide how hot, cold, wet, or windy it might be!

Date:

Astronomy

Nov. 17, 2012 Rise Set
Actual Time 7:00 AM PST 4:23 PM PST
Civil Twilight 6:28 AM PST 4:55 PM PST
Nautical Twilight 5:51 AM PST 5:32 PM PST
Astronomical Twilight 5:16 AM PST 6:07 PM PST
Moon 10:48 AM PST (11/17) 8:40 PM PST (11/17)
Length of Visible Light 10h 27m
Length of Day
9h 22m
Waxing Crescent, 21% of the Moon is Illuminated
Nov 17
Waxing Crescent
Nov 20
First Quarter
Nov 28
Full
Dec 6
Last Quarter
Dec 13
New

Hourly Weather History & Observations

Time (PST) Temp. Windchill Dew Point Humidity Pressure Visibility Wind Dir Wind Speed Gust Speed Precip Events Conditions
12:53 AM 42.1 °F - 39.0 °F 89% 29.90 in 10.0 mi Calm Calm - N/A   Overcast
1:53 AM 42.1 °F - 37.9 °F 85% 29.89 in 10.0 mi Calm Calm - N/A   Overcast
2:53 AM 42.1 °F - 37.9 °F 85% 29.86 in 9.0 mi Calm Calm - N/A   Overcast
3:53 AM 41.0 °F - 37.9 °F 89% 29.83 in 9.0 mi Calm Calm - N/A   Overcast
4:53 AM 41.0 °F - 37.9 °F 89% 29.82 in 8.0 mi Calm Calm - N/A   Overcast
5:53 AM 41.0 °F - 37.9 °F 89% 29.80 in 7.0 mi Calm Calm - N/A   Overcast
6:53 AM 41.0 °F - 37.9 °F 89% 29.79 in 7.0 mi Calm Calm - N/A   Overcast
7:53 AM 41.0 °F - 39.0 °F 93% 29.77 in 5.0 mi Calm Calm - N/A   Overcast
8:53 AM 42.1 °F - 39.0 °F 89% 29.75 in 5.0 mi Calm Calm - N/A   Overcast
9:53 AM 43.0 °F 40.3 °F 39.0 °F 86% 29.71 in 6.0 mi East 4.6 mph - N/A   Overcast
10:31 AM 44.6 °F 42.2 °F 39.2 °F 81% 29.68 in 7.0 mi East 4.6 mph - 0.00 in   Overcast
10:53 AM 44.1 °F 41.5 °F 39.0 °F 82% 29.68 in 6.0 mi NE 4.6 mph - 0.00 in   Haze
11:53 AM 44.1 °F - 39.0 °F 82% 29.65 in 6.0 mi Calm Calm - 0.00 in Rain Light Rain
12:43 PM 44.6 °F 43.1 °F 39.2 °F 81% 29.62 in 6.0 mi North 3.5 mph - 0.00 in   Haze
12:53 PM 45.0 °F 42.6 °F 39.9 °F 82% 29.62 in 5.0 mi NNW 4.6 mph - 0.00 in Rain Light Rain
1:53 PM 46.0 °F 43.9 °F 39.9 °F 79% 29.61 in 6.0 mi West 4.6 mph - 0.00 in   Haze
2:53 PM 45.0 °F 43.5 °F 39.9 °F 82% 29.60 in 6.0 mi SW 3.5 mph - N/A   Haze
3:33 PM 44.6 °F 41.4 °F 39.2 °F 81% 29.58 in 6.0 mi SSE 5.8 mph - N/A   Haze
3:53 PM 44.1 °F 41.5 °F 39.9 °F 85% 29.58 in 6.0 mi SSE 4.6 mph - N/A   Scattered Clouds
4:22 PM 44.6 °F - 39.2 °F 81% 29.57 in 5.0 mi Calm Calm - N/A   Mostly Cloudy
4:53 PM 44.1 °F 39.5 °F 39.9 °F 85% 29.60 in 6.0 mi West 8.1 mph - N/A   Mostly Cloudy
5:53 PM 44.1 °F 38.1 °F 39.9 °F 85% 29.65 in 6.0 mi SW 11.5 mph - N/A   Overcast
6:53 PM 44.1 °F 38.6 °F 39.9 °F 85% 29.69 in 6.0 mi SW 10.4 mph - 0.01 in Rain Light Rain
7:53 PM 44.1 °F 38.6 °F 39.9 °F 85% 29.71 in 10.0 mi SW 10.4 mph - 0.03 in Rain Light Rain
8:53 PM 44.1 °F 39.0 °F 39.9 °F 85% 29.74 in 10.0 mi South 9.2 mph - 0.00 in Rain Light Rain
9:53 PM 44.1 °F 41.5 °F 39.9 °F 85% 29.77 in 10.0 mi South 4.6 mph - 0.01 in   Overcast
10:53 PM 43.0 °F 38.8 °F 37.9 °F 82% 29.81 in 10.0 mi SSW 6.9 mph - N/A   Partly Cloudy
11:53 PM 39.9 °F 34.5 °F 36.0 °F 86% 29.83 in 10.0 mi SW 8.1 mph - N/A   Clear